[[{"header":{"parameterUnit":"m.s-1","parameterCategory":1,"la1":30.2991,"la2":30.254,"lo1":-89.0895,"lo2":-89.0444,"dy":0.0017,"dx":0.0017,"nx":28,"ny":28,"refTime":"2024-06-16T03:00:00:Z","depth":0,"parameterNumber":2,"parameterNumberName":"U-component_of_WINDS"},"data":[0,0,0,0,0,0,0,0,0,0,0,0,0,0,0,0,0,0,0,0,0,0,0,0,0,0,0,0,0,0,0,0,0,0,0,0,0,0,0,0,0,0,0,0,0,0,0,0,0,0,0,0,0,0,0,0,0,0,-1.1816,-1.1816,0,-1.1881,-1.1881,-1.1882,-1.1854,-1.1852,-1.1851,-1.1849,-1.1921,-1.1924,-1.1928,0,0,0,0,0,0,0,0,0,0,0,0,0,-1.1674,-1.1676,-1.1815,-1.1816,-1.1817,-1.188,-1.1881,-1.1882,-1.1854,-1.1852,-1.185,-1.1848,-1.192,-1.1924,-1.1928,0,0,0,0,0,0,0,0,0,0,0,0,0,-1.1737,-1.1677,-1.1815,-1.1811,-1.1811,-1.188,-1.1881,-1.1882,-1.1854,-1.1852,-1.185,-1.1847,-1.1918,-1.1923,-1.1928,-1.2008,0,0,-1.1944,-1.1946,0,0,0,0,0,0,0,0,-1.1733,-1.1742,-1.181,-1.1811,-1.1811,-1.1856,-1.1858,-1.1925,-1.1855,-1.1838,-1.1849,-1.1846,-1.1902,-1.1908,-1.1926,-1.2011,-1.2015,-1.1945,-1.1948,-1.195,-1.1951,0,0,0,0,0,0,0,-1.1729,-1.1739,-1.1841,-1.1812,-1.1812,-1.1807,-1.1814,-1.187,-1.1883,-1.1839,-1.1837,-1.1845,-1.1902,-1.1921,-1.1927,-1.2016,-1.1944,-1.1949,-1.1952,-1.1954,-1.2174,-1.2177,0,0,0,0,0,0,-1.1724,-1.1736,-1.1839,-1.1843,-1.1765,-1.1812,-1.1819,-1.1845,-1.1882,-1.1885,-1.1847,-1.1844,-1.1913,-1.1921,-1.193,-1.2028,-1.195,-1.1955,-1.1957,-1.2171,-1.2175,-1.2177,0,0,0,0,0,0,-1.1721,-1.1733,-1.1837,-1.1789,-1.1802,-1.1817,-1.1846,-1.1847,-1.1866,-1.1888,-1.1891,-1.1864,-1.1912,-1.1922,-1.1989,-1.203,-1.1957,-1.1962,-1.2168,-1.2172,-1.2176,-1.2225,0,0,0,0,0,0,-1.1717,-1.1732,-1.1761,-1.179,-1.1804,-1.1894,-1.1848,-1.185,-1.1875,-1.1871,-1.1905,-1.1908,-1.1911,-1.1982,-1.1994,-1.2036,-1.1965,-1.2164,-1.217,-1.2175,-1.222,-1.223,-1.2239,0,0,0,0,0,-1.1712,-1.1773,-1.1763,-1.1775,-1.184,-1.1896,-1.1904,-1.1905,-1.1878,-1.1908,-1.1923,-1.1907,-1.2023,-1.1989,-1.2003,-1.2047,-1.2162,-1.2168,-1.2174,-1.2215,-1.2228,-1.2239,0,0,0,0,0,0,-1.175,-1.1776,-1.1766,-1.1837,-1.1864,-1.1891,-1.1929,-1.1918,-1.1955,-1.195,-1.195,-1.1958,-1.2028,-1.2043,-1.2005,-1.2128,-1.2089,-1.2098,-1.2115,-1.2127,-1.2137,-1.2133,-1.197,0,0,0,0,0,-1.1766,-1.1807,-1.1828,-1.189,-1.1904,-1.1914,-1.1938,-1.1936,-1.1965,-1.1977,-1.1996,-1.2027,-1.207,-1.2099,-1.214,-1.2221,-1.223,-1.2258,-1.2268,-1.2275,-1.2285,-1.2332,-1.2346,-1.2198,-1.2198,-1.2198,0,0,-1.1801,-1.1821,-1.1847,-1.1898,-1.1919,-1.1964,-1.1924,-1.1973,-1.2007,-1.1985,-1.205,-1.2065,-1.2099,-1.2174,-1.2208,-1.2189,-1.2327,-1.2283,-1.229,-1.2295,-1.234,-1.2354,-1.2367,-1.2202,-1.2201,-1.2201,0,0,-1.1889,-1.1906,-1.196,-1.1982,-1.2014,-1.202,-1.2033,-1.2062,-1.2071,-1.2136,-1.2121,-1.2163,-1.2237,-1.2263,-1.2286,-1.2384,-1.2373,-1.2398,-1.245,-1.2496,-1.2508,-1.2518,-1.2557,-1.2571,-1.2406,-1.2406,-1.2406,0,-1.1929,-1.1994,-1.199,-1.2041,-1.2065,-1.2045,-1.2103,-1.2124,-1.2169,-1.2187,-1.2165,-1.2259,-1.2281,-1.2363,-1.2387,-1.2405,-1.2423,-1.2395,-1.2506,-1.2516,-1.2526,-1.2563,-1.2578,-1.2409,-1.2409,-1.2409,-1.2408,0,-1.2044,-1.209,-1.213,-1.2173,-1.2201,-1.2255,-1.2261,-1.2291,-1.2286,-1.2296,-1.2364,-1.2389,-1.2436,-1.2455,-1.2451,-1.2538,-1.2526,-1.2505,-1.2466,-1.2543,-1.2579,-1.2592,-1.2414,-1.2413,-1.2412,-1.2411,0,0,-1.2159,-1.2198,-1.2214,-1.2234,-1.2268,-1.2305,-1.2358,-1.2403,-1.243,-1.2461,-1.2509,-1.2573,-1.2554,-1.258,-1.2579,-1.2619,-1.27,-1.2593,-1.2594,-1.2616,-1.2802,-1.2821,-1.2837,-1.2691,-1.2694,-1.2696,-1.28,0,-1.2252,-1.2344,-1.2343,-1.243,-1.2474,-1.2456,-1.2504,-1.2531,-1.2542,-1.2583,-1.2595,-1.2642,-1.2611,-1.2628,-1.2666,-1.2682,-1.2738,-1.2674,-1.2739,-1.2742,-1.2735,-1.2855,-1.2874,-1.2971,-1.2814,-1.2816,-1.2818,0,-1.2373,-1.2408,-1.2499,-1.2528,-1.2547,-1.2589,-1.2632,-1.2669,-1.2701,-1.2707,-1.2736,-1.2729,-1.2787,-1.2745,-1.2826,-1.2783,-1.2809,-1.2821,-1.2825,-1.2834,-1.2787,-1.2871,-1.3002,-1.3018,-1.2839,-1.2837,-1.2835,0,-1.2453,-1.2522,-1.2586,-1.2604,-1.2638,-1.2669,-1.2686,-1.2715,-1.2743,-1.278,-1.2799,-1.2843,-1.2868,-1.2903,-1.291,-1.2878,-1.2993,-1.295,-1.3002,-1.3003,-1.303,-1.3029,-1.3172,-1.3041,-1.3041,-1.3041,-1.304,0,-1.2559,-1.2617,-1.2623,-1.2663,-1.2728,-1.2726,-1.2791,-1.2805,-1.2831,-1.2876,-1.2862,-1.2905,-1.2909,-1.2954,-1.2959,-1.3028,-1.3038,-1.3047,-1.3048,-1.305,-1.305,-1.307,-1.3065,-1.3044,-1.3044,-1.3043,-1.3042,0,-1.2661,-1.2666,-1.2736,-1.2763,-1.2771,-1.2818,-1.2843,-1.2883,-1.2891,-1.2948,-1.2962,-1.2977,-1.3029,-1.3038,-1.3099,-1.3103,-1.3187,-1.3179,-1.3176,-1.3176,-1.323,-1.3226,-1.3393,-1.3417,-1.3267,-1.3268,-1.327,0,-1.273,-1.2774,-1.2805,-1.2834,-1.2851,-1.2896,-1.2925,-1.2925,-1.2956,-1.2996,-1.3032,-1.3082,-1.3122,-1.3207,-1.3225,-1.3272,-1.3269,-1.3324,-1.3276,-1.3278,-1.3275,-1.3273,-1.328,-1.3334,-1.3336,-1.3337,-1.3338,0,-1.2854,-1.2855,-1.2895,-1.2937,-1.2971,-1.3004,-1.3036,-1.306,-1.3065,-1.31,-1.3153,-1.3184,-1.3246,-1.3298,-1.3346,-1.3365,-1.3355,-1.3353,-1.3368,-1.3373,-1.3371,-1.3377,-1.3205,-1.335,-1.3349,-1.3348,-1.3347,-1.3347,-1.2944,-1.2984,-1.3013,-1.3059,-1.3082,-1.3112,-1.3152,-1.3165,-1.3208,-1.3258,-1.3256,-1.3315,-1.3347,-1.341,-1.3432,-1.348,-1.3463,-1.3484,-1.349,-1.3497,-1.3504,-1.3359,-1.3488,-1.3488,-1.3488,-1.3487,-1.3487,0,-1.3071,-1.3089,-1.3131,-1.3175,-1.3212,-1.3195,-1.323,-1.3263,-1.3314,-1.3345,-1.3385,-1.3446,-1.3496,-1.3518,-1.3568,-1.3603,-1.3599,-1.3616,-1.3616,-1.3621,-1.3514,-1.3498,-1.3618,-1.3618,-1.3618,-1.3618,-1.3618,-1.3618,-1.3142,-1.3209,-1.3213,-1.3292,-1.331,-1.3366,-1.3388,-1.3417,-1.3441,-1.351,-1.3551,-1.3564,-1.3592,-1.3644,-1.3691,-1.3696,-1.3717,-1.3737,-1.3741,-1.3641,-1.3628,-1.3616,-1.3601,-1.3741,-1.3741,-1.3845,-1.3846,-1.3846]},{"header":{"parameterUnit":"m.s-1","parameterCategory":1,"la1":30.2991,"la2":30.254,"lo1":-89.0895,"lo2":-89.0444,"dy":0.0017,"dx":0.0017,"nx":28,"ny":28,"refTime":"2024-06-16T03:00:00:Z","depth":0,"parameterNumber":3,"parameterNumberName":"V-component_of_WINDS"},"data":[0,0,0,0,0,0,0,0,0,0,0,0,0,0,0,0,0,0,0,0,0,0,0,0,0,0,0,0,0,0,0,0,0,0,0,0,0,0,0,0,0,0,0,0,0,0,0,0,0,0,0,0,0,0,0,0,0,0,2.1795,2.1796,0,2.1831,2.1831,2.1832,2.179,2.1789,2.1787,2.1786,2.182,2.1822,2.1824,0,0,0,0,0,0,0,0,0,0,0,0,0,2.1688,2.169,2.1795,2.1796,2.1796,2.1831,2.1832,2.1832,2.1791,2.1789,2.1787,2.1785,2.1819,2.1822,2.1825,0,0,0,0,0,0,0,0,0,0,0,0,0,2.173,2.1691,2.1795,2.178,2.1779,2.1831,2.1832,2.1832,2.1791,2.1789,2.1786,2.1784,2.1818,2.1821,2.1825,2.1893,0,0,2.1836,2.1837,0,0,0,0,0,0,0,0,2.1728,2.1734,2.1782,2.1781,2.178,2.1804,2.1806,2.1852,2.1792,2.1786,2.1786,2.1783,2.1816,2.182,2.1831,2.1895,2.1896,2.1836,2.1838,2.184,2.1841,0,0,0,0,0,0,0,2.1725,2.1732,2.1809,2.1782,2.1781,2.177,2.1773,2.1815,2.1814,2.1787,2.1784,2.1789,2.1815,2.1828,2.1832,2.1897,2.1836,2.1839,2.1841,2.1843,2.2015,2.2017,0,0,0,0,0,0,2.1724,2.173,2.1808,2.181,2.1748,2.1774,2.1778,2.1799,2.1813,2.1813,2.1791,2.1787,2.1823,2.1828,2.1833,2.1912,2.184,2.1843,2.1845,2.2013,2.2016,2.2018,0,0,0,0,0,0,2.1722,2.1731,2.1807,2.177,2.1778,2.1778,2.1802,2.18,2.1813,2.1816,2.1816,2.1804,2.1822,2.1828,2.1878,2.1912,2.1844,2.1848,2.201,2.2013,2.2017,2.2071,0,0,0,0,0,0,2.1719,2.1731,2.1758,2.177,2.178,2.1853,2.1804,2.1803,2.182,2.1815,2.1829,2.1829,2.182,2.1873,2.1882,2.1916,2.185,2.2006,2.2011,2.2016,2.2066,2.2076,2.2085,0,0,0,0,0,2.1715,2.1772,2.1759,2.1769,2.1814,2.1855,2.186,2.185,2.1823,2.1849,2.185,2.1828,2.1908,2.1879,2.1888,2.1924,2.2004,2.201,2.2015,2.2062,2.2074,2.2085,0,0,0,0,0,0,2.1763,2.1773,2.176,2.1822,2.1838,2.1848,2.188,2.1864,2.1887,2.1881,2.1867,2.187,2.1923,2.1929,2.1896,2.1989,2.1951,2.1959,2.1984,2.1995,2.2004,2.2001,2.1853,0,0,0,0,0,2.178,2.1814,2.1821,2.1875,2.1884,2.1881,2.1898,2.1889,2.1904,2.1911,2.1916,2.1931,2.1959,2.1978,2.2004,2.2067,2.2068,2.2097,2.2106,2.2113,2.212,2.2151,2.2163,2.2036,2.2036,2.2036,0,0,2.1817,2.1827,2.1849,2.1885,2.1896,2.1929,2.1887,2.1924,2.1948,2.1916,2.1963,2.1968,2.1983,2.204,2.2065,2.2046,2.2155,2.212,2.2127,2.2129,2.2158,2.217,2.2181,2.204,2.2039,2.2039,0,0,2.1901,2.1913,2.1958,2.197,2.1988,2.1985,2.1996,2.2008,2.201,2.2058,2.2034,2.2061,2.2111,2.2122,2.2134,2.2221,2.2201,2.223,2.2278,2.2309,2.2319,2.2328,2.2357,2.2367,2.2237,2.2237,2.2237,0,2.1944,2.1994,2.1983,2.2022,2.2037,2.2011,2.2055,2.2067,2.2092,2.2103,2.2081,2.2141,2.215,2.2208,2.2229,2.2241,2.2251,2.2228,2.2319,2.2327,2.2335,2.2363,2.2374,2.224,2.224,2.2239,2.2239,0,2.2045,2.208,2.2114,2.2139,2.2159,2.22,2.2194,2.2215,2.2204,2.2204,2.2251,2.2261,2.2287,2.2301,2.229,2.2357,2.2344,2.2321,2.2282,2.2351,2.2376,2.2387,2.2245,2.2244,2.2243,2.2242,0,0,2.2159,2.2177,2.219,2.22,2.2217,2.2243,2.2282,2.2309,2.2326,2.2344,2.2375,2.2417,2.2396,2.241,2.24,2.2428,2.2493,2.2401,2.2401,2.2416,2.2564,2.258,2.2592,2.248,2.2482,2.2484,2.2562,0,2.2241,2.2311,2.2301,2.2367,2.2398,2.2372,2.2406,2.242,2.242,2.2445,2.2445,2.2474,2.2445,2.2453,2.2479,2.248,2.2522,2.2474,2.2508,2.2509,2.2503,2.2606,2.2623,2.2696,2.2572,2.2574,2.2575,0,2.2347,2.2368,2.2437,2.2447,2.246,2.2491,2.2513,2.2538,2.2552,2.255,2.2566,2.2551,2.2589,2.255,2.2601,2.2569,2.2582,2.2584,2.2587,2.2588,2.2545,2.2608,2.272,2.273,2.2591,2.259,2.2589,0,2.242,2.2467,2.2513,2.2523,2.2537,2.2559,2.2565,2.2577,2.2593,2.2612,2.2622,2.2646,2.2658,2.2677,2.2668,2.2641,2.272,2.2681,2.2718,2.2718,2.2734,2.2733,2.2847,2.2746,2.2746,2.2745,2.2745,0,2.2512,2.2554,2.2546,2.2575,2.2621,2.2609,2.2655,2.2658,2.2669,2.2696,2.2676,2.2702,2.269,2.2715,2.2709,2.2751,2.2757,2.2755,2.2753,2.2756,2.2756,2.2763,2.2757,2.2748,2.2748,2.2747,2.2747,0,2.2601,2.2598,2.2646,2.2655,2.2659,2.2692,2.2699,2.2725,2.2724,2.2758,2.2766,2.2764,2.2792,2.2785,2.2816,2.2812,2.2864,2.2856,2.2859,2.2857,2.2892,2.2888,2.3014,2.3029,2.292,2.2921,2.2922,0,2.2659,2.2691,2.2703,2.2721,2.2729,2.2757,2.2773,2.2763,2.278,2.2797,2.282,2.2847,2.2867,2.2913,2.2913,2.2936,2.2928,2.297,2.2931,2.2933,2.2926,2.2923,2.2925,2.2977,2.2979,2.298,2.298,0,2.2761,2.2758,2.2782,2.2805,2.2825,2.2843,2.2859,2.2874,2.2864,2.2884,2.2913,2.2929,2.296,2.2986,2.3007,2.3012,2.2994,2.2993,2.3002,2.3005,2.3005,2.3003,2.2878,2.299,2.2989,2.2988,2.2988,2.2987,2.2835,2.2862,2.2874,2.2901,2.2912,2.2927,2.2951,2.2952,2.2976,2.3001,2.2993,2.3025,2.3037,2.3063,2.3071,2.3095,2.3079,2.3093,2.3096,2.3099,2.3103,2.3003,2.3099,2.3099,2.3099,2.3098,2.3098,0,2.2935,2.2941,2.2966,2.2989,2.301,2.2992,2.3008,2.3026,2.3055,2.3067,2.3088,2.3119,2.3144,2.3146,2.3169,2.3188,2.318,2.3194,2.3191,2.3192,2.3117,2.3106,2.32,2.32,2.3199,2.3199,2.3199,2.3199,2.2989,2.3032,2.303,2.3077,2.3083,2.3114,2.3125,2.3138,2.3147,2.3184,2.3204,2.3206,2.3213,2.3236,2.3258,2.3257,2.3266,2.3283,2.3279,2.3208,2.3198,2.3188,2.3178,2.3285,2.3285,2.3353,2.3353,2.3354]}]]